When you browse on this site, cookies collect data to enhance your experience and personalize the content and advertising you see.
Visit our Privacy Policy to learn more. By continuing to use the site, you agree to this use of cookies and data.
  • In Hungary
  • List of Countries
  • For 7 days
  • Water Temperature
  • Weather Map
  • News
  • Weather Widgets
  • user-avatar
    Login

    Hourly Weather Oktyabrskaya

    Today, 8 December, Sunday

    Time Temperature Precipitation Wind Pressure Humidity
    00:00 -1°C° 0.1 mm 7 mps 733 mmHg 90%
    01:00 0°C° 0.1 mm 7 mps 733 mmHg 91%
    02:00 0°C° 0 mm 7 mps 733 mmHg 90%
    03:00 0°C° 0 mm 7 mps 732 mmHg 87%
    04:00 0°C° 0 mm 7 mps 732 mmHg 85%
    05:00 -1°C° 0 mm 7 mps 732 mmHg 83%
    06:00 -1°C° 0 mm 7 mps 733 mmHg 85%
    07:00 -1°C° 0 mm 6 mps 734 mmHg 87%
    08:00 -1°C° 0 mm 6 mps 734 mmHg 89%
    09:00 -1°C° 0 mm 6 mps 735 mmHg 87%
    10:00 -1°C° 0 mm 6 mps 735 mmHg 85%
    11:00 -1°C° 0 mm 6 mps 736 mmHg 82%
    12:00 -1°C° 0 mm 6 mps 736 mmHg 82%
    13:00 0°C° 0 mm 5 mps 737 mmHg 82%
    14:00 0°C° 0 mm 5 mps 737 mmHg 81%
    15:00 0°C° 0 mm 5 mps 737 mmHg 84%
    16:00 -1°C° 0 mm 5 mps 737 mmHg 87%
    17:00 -1°C° 0 mm 5 mps 737 mmHg 90%
    18:00 -1°C° 0 mm 5 mps 737 mmHg 90%
    19:00 0°C° 0 mm 5 mps 737 mmHg 91%
    20:00 -1°C° 0 mm 6 mps 737 mmHg 92%
    21:00 +1°C° 0.5 mm 6 mps 736 mmHg 92%
    22:00 0°C° 0.5 mm 7 mps 735 mmHg 92%
    23:00 0°C° 0.5 mm 7 mps 735 mmHg 92%

    Tomorrow, 9 December, Monday

    Time Temperature Precipitation Wind Pressure Humidity
    00:00 0°C° 0.3 mm 7 mps 735 mmHg 93%
    01:00 0°C° 0.3 mm 7 mps 735 mmHg 93%
    02:00 0°C° 0.3 mm 7 mps 734 mmHg 94%
    03:00 0°C° 0.1 mm 7 mps 734 mmHg 92%
    04:00 0°C° 0.1 mm 7 mps 734 mmHg 91%
    05:00 0°C° 0.1 mm 7 mps 734 mmHg 89%
    06:00 +1°C° 0.1 mm 6 mps 734 mmHg 90%
    07:00 +1°C° 0.1 mm 6 mps 734 mmHg 91%
    08:00 +1°C° 0.1 mm 5 mps 734 mmHg 92%
    09:00 +2°C° 0 mm 5 mps 734 mmHg 91%
    10:00 +2°C° 0 mm 5 mps 735 mmHg 90%
    11:00 +3°C° 0 mm 6 mps 735 mmHg 90%
    12:00 +2°C° 0.3 mm 5 mps 735 mmHg 91%
    13:00 +2°C° 0.3 mm 5 mps 735 mmHg 92%
    14:00 +2°C° 0.3 mm 5 mps 735 mmHg 93%
    15:00 +2°C° 0.3 mm 5 mps 735 mmHg 93%
    16:00 +2°C° 0.3 mm 5 mps 735 mmHg 93%
    17:00 +2°C° 0.3 mm 5 mps 736 mmHg 93%
    18:00 +3°C° 0 mm 4 mps 736 mmHg 93%
    19:00 +3°C° 0 mm 4 mps 736 mmHg 93%
    20:00 +3°C° 0 mm 4 mps 737 mmHg 92%
    21:00 +3°C° 0 mm 4 mps 737 mmHg 93%
    22:00 +3°C° 0 mm 4 mps 737 mmHg 94%
    23:00 +3°C° 0 mm 3 mps 737 mmHg 95%

    Day after tomorrow, 10 December, Tuesday

    Time Temperature Precipitation Wind Pressure Humidity
    00:00 +3°C° 0 mm 3 mps 738 mmHg 95%
    01:00 +2°C° 0 mm 3 mps 738 mmHg 95%
    02:00 +2°C° 0 mm 3 mps 738 mmHg 96%
    03:00 +2°C° 0 mm 3 mps 738 mmHg 95%
    04:00 +2°C° 0 mm 3 mps 738 mmHg 95%
    05:00 +2°C° 0 mm 3 mps 739 mmHg 95%
    06:00 +2°C° 0 mm 3 mps 739 mmHg 95%
    07:00 +2°C° 0 mm 3 mps 740 mmHg 94%
    08:00 +2°C° 0 mm 3 mps 740 mmHg 93%
    09:00 +2°C° 0 mm 3 mps 741 mmHg 92%
    10:00 +1°C° 0 mm 4 mps 741 mmHg 91%
    11:00 +1°C° 0 mm 4 mps 741 mmHg 90%
    12:00 +1°C° 0 mm 4 mps 741 mmHg 90%
    13:00 +1°C° 0 mm 4 mps 741 mmHg 90%
    14:00 +2°C° 0 mm 3 mps 742 mmHg 89%
    15:00 +2°C° 0 mm 3 mps 742 mmHg 90%
    16:00 +2°C° 0 mm 3 mps 742 mmHg 91%
    17:00 +1°C° 0 mm 4 mps 742 mmHg 92%
    18:00 +2°C° 0 mm 3 mps 743 mmHg 93%
    19:00 +2°C° 0 mm 3 mps 743 mmHg 93%
    20:00 +2°C° 0 mm 3 mps 744 mmHg 93%
    21:00 +1°C° 0.1 mm 4 mps 744 mmHg 94%
    22:00 +1°C° 0.1 mm 4 mps 745 mmHg 94%
    23:00 +1°C° 0.1 mm 4 mps 745 mmHg 94%

    11 December, Wednesday

    Time Temperature Precipitation Wind Pressure Humidity
    00:00 0°C° 0 mm 4 mps 746 mmHg 92%
    01:00 0°C° 0 mm 3 mps 746 mmHg 90%
    02:00 -1°C° 0 mm 3 mps 747 mmHg 87%
    03:00 -2°C° 0 mm 3 mps 747 mmHg 88%
    04:00 -2°C° 0 mm 2 mps 748 mmHg 88%
    05:00 -3°C° 0 mm 2 mps 748 mmHg 88%
    06:00 -3°C° 0 mm 2 mps 749 mmHg 87%
    07:00 -1°C° 0 mm 1 mps 749 mmHg 86%
    08:00 -1°C° 0 mm 1 mps 750 mmHg 84%
    09:00 -1°C° 0 mm 1 mps 750 mmHg 78%
    10:00 -1°C° 0 mm 0 mps 750 mmHg 72%
    11:00 -1°C° 0 mm 0 mps 751 mmHg 66%
    12:00 -1°C° 0 mm 0 mps 751 mmHg 64%
    13:00 +1°C° 0 mm 1 mps 751 mmHg 63%
    14:00 +1°C° 0 mm 1 mps 750 mmHg 61%
    15:00 0°C° 0 mm 1 mps 750 mmHg 63%
    16:00 0°C° 0 mm 1 mps 750 mmHg 65%
    17:00 -3°C° 0 mm 2 mps 750 mmHg 67%
    18:00 -3°C° 0 mm 2 mps 750 mmHg 67%
    19:00 -3°C° 0 mm 2 mps 750 mmHg 67%
    20:00 -3°C° 0 mm 2 mps 750 mmHg 67%
    21:00 -3°C° 0 mm 2 mps 750 mmHg 69%
    22:00 -4°C° 0 mm 3 mps 750 mmHg 71%
    23:00 -4°C° 0 mm 3 mps 750 mmHg 73%

    12 December, Thursday

    Time Temperature Precipitation Wind Pressure Humidity
    00:00 -4°C° 0 mm 3 mps 750 mmHg 76%
    01:00 -4°C° 0 mm 3 mps 749 mmHg 79%
    02:00 -4°C° 0 mm 3 mps 749 mmHg 82%
    03:00 -4°C° 0 mm 3 mps 749 mmHg 86%
    04:00 -3°C° 0 mm 4 mps 749 mmHg 89%
    05:00 -3°C° 0 mm 4 mps 748 mmHg 92%
    06:00 -3°C° 0 mm 4 mps 748 mmHg 92%
    07:00 -3°C° 0 mm 4 mps 748 mmHg 92%
    08:00 -4°C° 0 mm 5 mps 747 mmHg 92%
    09:00 -2°C° 0 mm 5 mps 747 mmHg 90%
    10:00 -2°C° 0 mm 5 mps 747 mmHg 88%
    11:00 -2°C° 0 mm 5 mps 747 mmHg 85%
    12:00 -1°C° 0 mm 5 mps 747 mmHg 84%
    13:00 -1°C° 0 mm 5 mps 746 mmHg 83%
    14:00 -1°C° 0 mm 5 mps 746 mmHg 82%
    15:00 -2°C° 0 mm 5 mps 746 mmHg 84%
    16:00 -2°C° 0 mm 5 mps 746 mmHg 87%
    17:00 -4°C° 0 mm 5 mps 745 mmHg 89%
    18:00 -4°C° 0 mm 5 mps 745 mmHg 89%
    19:00 -4°C° 0 mm 5 mps 745 mmHg 89%
    20:00 -4°C° 0 mm 5 mps 745 mmHg 89%
    21:00 -2°C° 0 mm 5 mps 745 mmHg 89%
    22:00 -2°C° 0 mm 5 mps 745 mmHg 89%
    23:00 -2°C° 0 mm 5 mps 745 mmHg 89%

    13 December, Friday

    Time Temperature Precipitation Wind Pressure Humidity
    00:00 -2°C° 0.1 mm 5 mps 744 mmHg 91%
    01:00 -2°C° 0.1 mm 5 mps 744 mmHg 92%
    02:00 -2°C° 0.1 mm 5 mps 744 mmHg 94%
    03:00 -2°C° 0 mm 5 mps 743 mmHg 94%
    04:00 -2°C° 0 mm 5 mps 743 mmHg 93%
    05:00 -2°C° 0 mm 5 mps 743 mmHg 92%
    06:00 -2°C° 0.1 mm 5 mps 742 mmHg 94%
    07:00 -2°C° 0.1 mm 5 mps 742 mmHg 95%
    08:00 -2°C° 0.1 mm 5 mps 742 mmHg 96%
    09:00 -1°C° 0 mm 5 mps 742 mmHg 96%
    10:00 -2°C° 0 mm 6 mps 741 mmHg 95%
    11:00 -2°C° 0 mm 6 mps 741 mmHg 95%
    12:00 -1°C° 0.1 mm 5 mps 741 mmHg 95%
    13:00 -1°C° 0.1 mm 5 mps 740 mmHg 96%
    14:00 -1°C° 0.1 mm 5 mps 740 mmHg 96%
    15:00 -1°C° 0.1 mm 5 mps 740 mmHg 96%
    16:00 -1°C° 0.1 mm 5 mps 740 mmHg 96%
    17:00 -2°C° 0.1 mm 6 mps 739 mmHg 96%
    18:00 -2°C° 0 mm 6 mps 739 mmHg 95%
    19:00 -2°C° 0 mm 6 mps 739 mmHg 93%
    20:00 -2°C° 0 mm 6 mps 738 mmHg 92%
    21:00 -2°C° 0 mm 6 mps 738 mmHg 91%
    22:00 -2°C° 0 mm 7 mps 738 mmHg 90%
    23:00 -3°C° 0 mm 7 mps 738 mmHg 89%
    Show more